DW9271 Weather Reports


Display with metric or nautical units.
time (UTC)temp
F
wind
direction
speed
MPH
gust
MPH
rain 1hr
in
rain 24hr
in
rain mn
in
humidity
%
barometer
mb
20260903113014 70 130 0.0 0.0 0.00 0.00 0.00 92 1010.9
20260903111506 70 132 0.0 0.0 0.00 0.00 0.00 92 1010.9
20260903110005 70 132 0.0 0.0 0.00 0.24 0.00 91 1010.8
20260903104505 70 132 0.0 0.0 0.00 0.24 0.00 92 1010.8
20260903103004 70 132 0.0 0.0 0.00 0.24 0.00 92 1010.8
20260903101507 70 132 1.0 4.0 0.00 0.24 0.00 92 1010.7
20260903100004 70 132 1.0 5.0 0.00 0.24 0.00 91 1010.7
20260903094508 70 131 2.0 5.0 0.00 0.24 0.00 92 1010.7
20260903093002 70 131 2.0 5.0 0.00 0.24 0.00 91 1010.7
20260903091502 70 132 1.0 4.0 0.00 0.24 0.00 91 1010.5
20260903090100 71 132 1.0 5.0 0.00 0.24 0.00 91 1010.5
20260903084557 70 130 2.0 5.0 0.00 0.24 0.00 92 1010.4
20260903083059 70 132 2.0 5.0 0.00 0.24 0.00 92 1010.4
20260903081554 70 132 3.0 5.0 0.00 0.24 0.00 92 1010.5
20260903080053 70 130 2.0 5.0 0.00 0.24 0.00 92 1010.6
20260903074604 70 128 3.0 5.0 0.00 0.24 0.00 93 1010.5
20260903073050 69 132 1.0 4.0 0.00 0.24 0.00 94 1010.7
20260903071553 69 131 0.0 0.0 0.00 0.24 0.00 94 1010.7
20260903070049 69 131 0.0 0.0 0.00 0.24 0.00 94 1010.8
20260903064550 68 131 0.0 0.0 0.00 0.24 0.00 94 1010.9
20260903063048 68 131 0.0 0.0 0.00 0.24 0.00 94 1011.0
20260903061553 69 131 0.0 0.0 0.00 0.24 0.00 94 1011.0
20260903060045 69 131 0.0 0.0 0.00 0.24 0.00 93 1010.8
20260903054548 69 131 0.0 0.0 0.00 0.24 0.00 93 1010.9
20260903053101 69 131 0.0 0.0 0.00 0.24 0.00 93 1010.9
20260903051542 69 131 0.0 0.0 0.00 0.24 0.00 93 1010.7
20260903050039 70 131 0.0 3.0 0.00 0.24 0.24 93 1010.6
20260903044550 70 131 1.0 3.0 0.00 0.24 0.24 92 1010.6
20260903043039 70 132 2.0 5.0 0.00 0.24 0.24 92 1010.5
20260903041537 70 132 2.0 5.0 0.00 0.24 0.24 92 1010.5
20260903040037 70 132 1.0 4.0 0.00 0.24 0.24 91 1010.5
20260903034536 71 133 2.0 4.0 0.00 0.24 0.24 91 1010.6
20260903033036 71 132 2.0 4.0 0.00 0.24 0.24 90 1010.7
20260903031535 71 132 0.0 3.0 0.00 0.24 0.24 90 1010.7
20260903030041 72 132 1.0 3.0 0.00 0.24 0.24 89 1010.6
20260903024541 72 131 2.0 5.0 0.00 0.24 0.24 89 1010.7
20260903023034 73 132 2.0 4.0 0.00 0.24 0.24 88 1010.6
20260903021536 73 130 1.0 3.0 0.00 0.24 0.24 88 1010.5
20260903020035 73 130 2.0 5.0 0.00 0.24 0.24 89 1010.4
20260903014533 74 70 2.0 4.0 0.00 0.24 0.24 88 1010.3
20260903013032 74 34 0.0 2.0 0.00 0.24 0.24 87 1010.1
20260903011540 74 32 0.0 1.0 0.00 0.24 0.24 87 1009.9
20260903010031 75 29 0.0 2.0 0.00 0.24 0.24 84 1009.8
20260903004532 76 346 0.0 0.0 0.00 0.24 0.24 82 1009.6
20260903003030 79 346 0.0 0.0 0.00 0.24 0.24 76 1009.7
20260903001530 82 346 0.0 0.0 0.00 0.24 0.24 71 1009.8
20260903000029 83 346 0.0 0.0 0.00 0.24 0.24 69 1009.8
20260902234528 85 346 0.0 0.0 0.00 0.24 0.24 67 1009.7
20260902233035 85 346 0.0 0.0 0.00 0.24 0.24 67 1009.8
20260902231526 84 346 0.0 0.0 0.00 0.24 0.24 66 1009.7
20260902230026 84 346 0.0 0.0 0.00 0.24 0.24 65 1009.6
20260902224524 84 350 0.0 0.0 0.00 0.24 0.24 65 1009.7
20260902223024 84 355 0.0 0.0 0.00 0.24 0.24 66 1009.7
20260902221523 84 355 0.0 3.0 0.00 0.24 0.24 65 1009.8
20260902220029 84 34 0.0 3.0 0.00 0.24 0.24 64 1009.8
20260902214520 84 35 0.0 2.0 0.00 0.24 0.24 65 1010.0
20260902213017 83 34 0.0 3.0 0.00 0.24 0.24 69 1010.0
20260902211513 82 5 0.0 2.0 0.00 0.24 0.24 71 1010.2
20260902210012 81 80 0.0 4.0 0.00 0.24 0.24 71 1010.2
20260902204520 81 38 0.0 5.0 0.00 0.24 0.24 71 1010.4
20260902203011 81 28 0.0 3.0 0.00 0.24 0.24 70 1010.4
20260902201522 81 313 1.0 4.0 0.00 0.24 0.24 70 1010.6
20260902200011 81 305 1.0 3.0 0.00 0.24 0.24 71 1010.6
20260902194511 81 321 1.0 3.0 0.00 0.24 0.24 69 1010.6
20260902193008 81 273 0.0 4.0 0.00 0.24 0.24 68 1010.6
20260902191513 81 196 0.0 1.0 0.00 0.24 0.24 68 1010.5
20260902190002 81 197 0.0 4.0 0.00 0.24 0.24 69 1010.5
20260902184600 80 298 0.0 5.0 0.00 0.24 0.24 72 1010.6
20260902183057 79 77 0.0 2.0 0.00 0.24 0.24 74 1010.8
20260902181610 79 275 1.0 4.0 0.00 0.24 0.24 72 1011.0
20260902180059 78 290 0.0 3.0 0.00 0.24 0.24 75 1011.1
20260902174549 77 257 0.0 2.0 0.00 0.24 0.24 75 1010.9
20260902173048 75 259 0.0 4.0 0.00 0.24 0.24 77 1011.3
20260902171554 75 294 1.0 5.0 0.00 0.24 0.24 80 1011.4
20260902170046 73 291 0.0 0.0 0.00 0.24 0.24 83 1011.2
20260902164555 72 57 0.0 2.0 0.00 0.24 0.24 86 1011.5
20260902163048 70 59 0.0 2.0 0.00 0.24 0.24 90 1011.5
20260902161557 70 56 0.0 0.0 0.00 0.24 0.24 94 1011.4
20260902160044 69 56 0.0 0.0 0.00 0.24 0.24 94 1011.5
20260902154600 68 56 0.0 0.0 0.00 0.24 0.24 94 1011.3
20260902153046 68 56 0.0 1.0 0.00 0.24 0.24 95 1011.4
20260902151542 67 55 0.0 0.0 0.00 0.24 0.24 96 1011.4
20260902150041 67 55 0.0 0.0 0.00 0.24 0.24 96 1011.0
20260902144547 67 55 0.0 0.0 0.00 0.24 0.24 96 1011.4
20260902143040 66 56 0.0 3.0 0.00 0.24 0.24 96 1011.0
20260902141538 66 44 0.0 2.0 0.00 0.24 0.24 96 1011.2
20260902140041 66 271 1.0 4.0 0.00 0.24 0.24 96 1012.5
20260902134538 66 131 0.0 0.0 0.00 0.24 0.24 96 1012.4
20260902133040 65 130 0.0 1.0 0.00 0.24 0.24 96 1012.0
20260902131541 65 130 0.0 2.0 0.00 0.24 0.24 96 1012.2
20260902130035 65 130 0.0 0.0 0.00 0.24 0.24 95 1011.9
20260902124535 65 131 0.0 2.0 0.00 0.24 0.24 96 1011.4
20260902123035 65 130 0.0 3.0 0.00 0.24 0.24 96 1010.9
20260902121531 65 130 1.0 4.0 0.00 0.24 0.24 96 1011.3
20260902120030 64 129 0.0 4.0 0.00 0.24 0.24 95 1011.5
20260902114528 64 127 1.0 3.0 0.00 0.24 0.24 95 1011.2